This is the latest recevied weather packets stored in our database for station/object AI5BL. If no packets are shown the sender has not sent any weather packets the latest 10 day(s).
| Time | Temp. | Humidity | Pressure | Rain* | Wind** | Luminosity | Snow |
|---|---|---|---|---|---|---|---|
| 1777593420 | 17.78° C | 98% | 1014.4 hPa | 0 mm | - | 41 W/m² | - |
| 1777593119 | 17.78° C | 98% | 1014.6 hPa | 0 mm | - | 41 W/m² | - |
| 1777592818 | 17.78° C | 98% | 1014.4 hPa | 0 mm | - | 41 W/m² | - |
| 1777592516 | 17.78° C | 98% | 1014.4 hPa | 0 mm | - | 41 W/m² | - |
| 1777592216 | 17.78° C | 98% | 1014.2 hPa | 0 mm | - | 41 W/m² | - |
| 1777591913 | 17.78° C | 98% | 1014.4 hPa | 0 mm | - | 41 W/m² | - |
| 1777591609 | 17.78° C | 98% | 1014.6 hPa | 0 mm | - | 41 W/m² | - |
| 1777591305 | 17.78° C | 98% | 1014.5 hPa | 0 mm | - | 41 W/m² | - |
| 1777591002 | 17.78° C | 98% | 1014.4 hPa | 0 mm | - | 41 W/m² | - |
| 1777590702 | 17.78° C | 98% | 1014.6 hPa | 0 mm | - | 9 W/m² | - |
| 1777590398 | 17.78° C | 98% | 1014.9 hPa | 0 mm | - | 9 W/m² | - |
| 1777590096 | 17.78° C | 98% | 1015 hPa | 0 mm | - | 11 W/m² | - |
| 1777589792 | 17.78° C | 98% | 1014.8 hPa | 0 mm | - | 11 W/m² | - |
| 1777589491 | 17.78° C | 97% | 1014.7 hPa | 3.05 mm | - | 31 W/m² | - |
| 1777589186 | 17.78° C | 97% | 1014.2 hPa | 3.05 mm | - | 31 W/m² | - |
| 1777588883 | 18.33° C | 96% | 1014.4 hPa | 0 mm | - | 15 W/m² | - |
| 1777588579 | 18.33° C | 96% | 1014.5 hPa | 4.83 mm | - | 15 W/m² | - |
| 1777588274 | 18.33° C | 96% | 1014.7 hPa | 4.83 mm | - | 15 W/m² | - |
| 1777587970 | 18.89° C | 95% | 1014.3 hPa | 1.27 mm | - | 19 W/m² | - |
| 1777587666 | 18.89° C | 95% | 1014.5 hPa | 4.32 mm | - | 19 W/m² | - |
| 1777587366 | 18.89° C | 95% | 1014.4 hPa | 4.83 mm | - | 19 W/m² | - |
| 1777587062 | 18.89° C | 94% | 1014.3 hPa | 3.05 mm | - | 11 W/m² | - |
| 1777586758 | 19.44° C | 92% | 1014 hPa | 1.27 mm | - | 35 W/m² | - |
| 1777586453 | 19.44° C | 89% | 1014 hPa | 0 mm | - | 41 W/m² | - |
| 1777586148 | 19.44° C | 90% | 1014.1 hPa | 0 mm | - | 36 W/m² | - |
* Rain latest hour (hover to see other rain measurements)
** Current wind speed in m/s (hover to see current wind gust speed)